Flag for Estonia Weather past 2 weeks in Narva, Estonia

Now
60 °F

Passing clouds.


Feels Like: 61 °F
Forecast: 56 / 67 °F
Wind: 3 mph from Southwest

Location: Narva

Current Time: Aug 28, 2015 at 10:52:53 PM

Latest Report: Aug 28, 2015 at 9:00 PM


Visibility: 13 mi

Pressure: 29.72 "Hg

Humidity: 94%

Dew point: 58 °F

Location of NarvaLocation

Historic Weather in Narva — Graph

°F

Narva temperature yesterday

Maximum temperature yesterday: 71 °F (at 4:00 PM)
Minimum temperature yesterday: 51 °F (at 6:00 AM)
Average temperature yesterday: 61 °F

Past Weeks' High & Low Weather Summary

 TemperatureHumidityPressure
High78 °F (Aug 23, 5:00 PM)100% (Aug 17, 5:00 AM)30.46 "Hg (Aug 17, 5:00 AM)
Low35 °F (Aug 19, 5:00 AM)35% (Aug 21, 2:00 PM)29.65 "Hg (Aug 28, 5:00 PM)
Average60 °F74%30.19 "Hg
* Reported Aug 13 9:00 PM — Aug 28 9:00 PM, Narva, Weather by CustomWeather, © 2015

Note: Actual official high and low records may vary slightly from our data, if they occured in-between our weather recording intervals... More about our weather records

Advertising

Narva weather history for previous 24 hours

 ConditionsComfort  
Time TempWeatherWind HumidityBarometerVisibility
9:00 PM
Fri, Aug 28
60 °FPassing clouds.3 mph94%29.72 "Hg12 mi
8:00 PM61 °FOvercast.5 mph93%29.70 "Hg12 mi
7:00 PM62 °FRain. Low clouds.6 mph96%29.68 "Hg2 mi
6:00 PM62 °FLow clouds.6 mph94%29.66 "Hg10 mi
5:00 PM64 °FLight rain. Low clouds.7 mph93%29.65 "Hg7 mi
4:00 PM64 °FRain. Overcast.7 mph91%29.66 "Hg7 mi
3:00 PM63 °FLight rain. Overcast.7 mph94%29.68 "Hg12 mi
2:00 PM63 °FLight rain. Overcast.7 mph95%29.72 "Hg9 mi
1:00 PM63 °FRain showers. Low clouds.3 mph94%29.74 "Hg11 mi
12:00 PM63 °FOvercast.5 mph94%29.76 "Hg12 mi
11:00 AM62 °FLight rain. Overcast.5 mph93%29.79 "Hg12 mi
10:00 AM62 °FLight rain. Overcast.3 mph93%29.80 "Hg12 mi
9:00 AM62 °FRain showers. Overcast.2 mph93%29.82 "Hg12 mi
8:00 AM62 °FLight rain. Overcast.3 mph95%29.83 "Hg12 mi
6:00 AM62 °FLight rain. Overcast.3 mph91%29.86 "Hg12 mi
5:00 AM62 °FRain showers. Overcast.2 mph90%29.87 "Hg12 mi
4:00 AM64 °FLight rain. Overcast.2 mph82%29.88 "Hg12 mi
3:00 AM64 °FOvercast.2 mph82%29.89 "Hg12 mi
2:00 AM64 °FOvercast.3 mph80%29.90 "Hg12 mi
12:00 AM63 °FOvercast.2 mph86%29.93 "Hg12 mi
11:00 PM
Thu, Aug 27
61 °FOvercast.2 mph90%29.93 "Hg12 mi
10:00 PM61 °FPassing clouds.2 mph87%29.94 "Hg12 mi
Weather by CustomWeather, © 2015

See weather overviewHow to use our weather pages